Regional Weather Roundup
Issued by NWS Upton, NY

Current Version | Previous Version | Text Only | Print | Product List | Glossary On
Versions: 1 2 3 4 5 6 7 8 9 10 11 12 13 14 15 16 17 18 19 20 21 22 23 24 25 26 27
000
ASUS41 KOKX 120808
RWROKX

REGIONAL WEATHER ROUNDUP
NATIONAL WEATHER SERVICE NEW YORK NY
300 AM EST TUE DEC 12 2017

NOTE: "FAIR" INDICATES FEW OR NO CLOUDS BELOW 12,000 FEET WITH NO
SIGNIFICANT WEATHER AND/OR OBSTRUCTIONS TO VISIBILITY.

NYZ071-072-176-178-NJZ106-104-120900-
NEW YORK CITY METRO AREA

CITY           SKY/WX    TMP DP  RH WIND       PRES   REMARKS
Central Park   CLOUDY    42  31  64 S6        29.85F
Bronx Bot Gard   N/A     37  28  70 CALM      29.83F
Bronx Lehman C   N/A     37  30  75 E8          N/A  WCI  31
LaGuardia APRT CLOUDY    39  29  67 E8        29.83F WCI  33
Queens College   N/A     43  32  65 S8          N/A
Kennedy INTL   CLOUDY    43  35  73 S15       29.85F
Breezy Point     N/A     45 N/A N/A S15         N/A
Brooklyn Coll    N/A     45  32  61 S10         N/A
Staten Island    N/A     43  32  65 S5          N/A
Newark/Liberty CLOUDY    41  31  67 S6        29.84F
Teterboro      CLOUDY    41  30  65 S3        29.83F
$$

NYZ177-179-078>081-120900-
LONG ISLAND NEW YORK

CITY           SKY/WX    TMP DP  RH WIND       PRES   REMARKS
Jones Beach      N/A     45 N/A N/A S12         N/A
Wantagh          N/A     43  32  65 S8          N/A
Matinecock PT    N/A     37 N/A N/A SE7         N/A  WCI  32
Farmingdale    MOCLDY    34  27  75 E5        29.86F WCI  30
MacArthur/ISP  CLOUDY    34  27  75 E6        29.86F WCI  29
Shirley        MOCLDY    32  28  85 CALM      29.89F
Mt Sinai Harb    N/A    N/A N/A N/A CALM        N/A
Westhampton    CLOUDY    32  27  81 NE3       29.90F
East Hampton   CLOUDY    31  27  83 CALM      29.89F
Southold         N/A     36  28  75 E2          N/A
Montauk          N/A     39  30  70 CALM      29.91F
$$

NYZ052-065-067-120900-
HUDSON VALLEY

CITY           SKY/WX    TMP DP  RH WIND       PRES   REMARKS
White Plains   CLOUDY    34  25  69 CALM      29.83F
Larchmont Harb   N/A     39 N/A N/A E13         N/A  WCI  32
Croton On Huds   N/A     37 N/A N/A E3          N/A
Somers           N/A     32  25  74 E5          N/A  WCI  27
Brewster         N/A     32  25  74 SE5         N/A  WCI  27
Newburgh       CLOUDY    34  28  80 CALM      29.83F
Montgomery     CLOUDY    31  26  82 NE6       29.81F WCI  25
Otisville        N/A     30  27  86 E3          N/A
Warwick          N/A     34  27  75 SE6         N/A  WCI  29
Suffern          N/A     34  27  75 E1          N/A
Poughkeepsie   CLOUDY    33  26  75 CALM      29.83F
Albany         FLURRIES  30  25  81 SE8       29.83F WCI  22
$$

NJZ001-105-106-008-010-013-015-019>022-104-120900-
NEW JERSEY

CITY           SKY/WX    TMP DP  RH WIND       PRES   REMARKS
Newark/Liberty CLOUDY    41  31  67 S6        29.84F
Teterboro      CLOUDY    41  30  65 S3        29.83F
Caldwell       CLOUDY    39  26  59 S3        29.83F
Somerville     CLOUDY    35  26  69 SE3       29.80F
Linden         CLOUDY    40  29  66 CALM      29.83F
Perth Amboy      N/A     39 N/A N/A SE7         N/A  WCI  34
Sussex         CLOUDY    36  24  62 S5        29.80F WCI  32
Andover        NOT AVBL
Trenton        CLOUDY    34  26  72 SE6       29.81F WCI  29
Millville      CLOUDY    35  34  96 CALM      29.82F
Atlantic City  CLOUDY    45  35  68 S7        29.83F
Wrightstown    CLOUDY    34  28  78 SE3       29.80F
Toms River     CLOUDY    33  30  88 CALM      29.84F
Belmar         CLOUDY    40  32  73 SE6       29.84F
$$

PAZ047>061-062-071-120900-
EASTERN PENNSYLVANIA

CITY           SKY/WX    TMP DP  RH WIND       PRES   REMARKS
Philadelphia   CLOUDY    37  30  75 E5        29.80F WCI  33
Allentown      CLOUDY    37  25  61 SE6       29.78F WCI  32
Scranton       CLOUDY    35  24  64 N3        29.69F
$$

CTZ002-004>006-009-010-012-RIZ004-006-007-MAZ004-011-015-120900-
SOUTHERN NEW ENGLAND
 IN CT

CITY           SKY/WX    TMP DP  RH WIND       PRES   REMARKS
Bradley INTL   FLURRIES  30  24  78 NW3       29.90F
Hartford       CLOUDY    34  24  67 CALM      29.89F
Danbury        CLOUDY    34  23  64 CALM      29.86F
Wtrbury/Oxford CLOUDY    32  22  66 E7        29.85F WCI  26
Norwalk Harbor   N/A     39 N/A N/A SE13        N/A  WCI  32
Bridgeport     CLOUDY    40  28  62 SE8       29.87F WCI  34
Meriden        CLOUDY    30  26  85 CALM      29.89F
New Haven      CLOUDY    41  28  60 SE8       29.88F
Chester        PTSUNNY   34  23  64 MISG      29.88F
Groton         CLOUDY    36  25  64 N3        29.91F
Wilimantic     CLOUDY    32  25  75 CALM      29.91F

 IN RI

CITY           SKY/WX    TMP DP  RH WIND       PRES   REMARKS
Providence     CLOUDY    34  27  75 NE3       29.94F
Block Island     N/A    N/A N/A N/A MISG        N/A
Westerly       CLOUDY    34  27  75 N3        29.92F
 IN MA

CITY           SKY/WX    TMP DP  RH WIND       PRES   REMARKS
Boston         CLOUDY    36  25  64 CALM      29.96F
Worcester      FLURRIES  28  18  66 E3        29.89F
Westfield      CLOUDY    30  25  81 N6        29.90F WCI  24
Provincetown   CLOUDY    35  24  64 E3        29.96F
Nantucket      CLOUDY    41  33  73 SE10      29.94F
$$

ANZ330-335-338-340-345-350-353-355-120900-
COASTAL MARINE OBSERVATIONS


STATION/POSITION TIME  SKY/WX   TEMP    WIND        PRES    VSBY  WAVE
                                AIR SEA DIR/SP/G                  HT/PER
                 (UTC)          (F)     (DEG/KT/KT) (MB)    (MI)  (FT/S)
NY HARB ENTRANCE 0650            45 52  170/ 16/ 19 1011.2          2/ 9
20 S FIRE ISLAND 0650            45 53  180/ 14/ 16 1012.4          3/10
GREAT SOUTH BAY  0730            42 45  190/  8/ 10   N/A
HUDSON CANYON    0750            47 56  190/ 12/ 16 1011.9          3/ 8
KINGS POINT      0724            37 45  150/  3/  5 1012.0
EXECUTION ROCKS  0730            40     120/ 10/ 12   N/A
WESTERN LI SOUND 0649            40     130/ 10/ 12   N/A           0
CENTRAL LI SOUND 0730            42     140/ 10/ 12   N/A           1
ROBBINS REEF     0736            44     170/ 15/ 18 1011.2
$$


>>>>>>>>>>>>>>>>>>>>>>>>>>>> KEY <<<<<<<<<<<<<<<<<<<<<<<<<<<
>                                                          <
>     SKY/WX - Sky Condition/Present Weather               <
>     TMP    - Temperature in Fahrenheit                   <
>     DP     - Dew Point in Fahrenheit                     <
>     RH     - Relative Humidity in Percent                <
>     WIND   - Direction (from) and Speed in MPH           <
>     PRES   - Mean Sea Level Pressure (inches of Hg)      <
>     WCI    - Wind Chill Index                            <
>     VSB    - VISIBILITY IN MILES                         <
>     HX     - HEAT INDEX                                  <
>     TC     - TEMPERATURE IN CELSIUS                      <
>     VRB    - VARIABLE WIND DIRECTION                     <
>                                                          <
>>>>>>>>>>>>>>>>>>>>>>>>>>>> KEY <<<<<<<<<<<<<<<<<<<<<<<<<<<




USA.gov is the U.S. government's official web portal to all federal, state and local government web resources and services.